Regional Weather Roundup
Issued by NWS Green Bay, WI

Home | Current Version | Previous Version | Graphics & Text | Print | Product List | Glossary Off
Versions: 1 2 3 4 5 6 7 8 9 10 11 12 13 14 15 16 17 18 19 20 21 22 23 24 25 26 27 28 29 30 31 32 33 34 35 36 37 38 39 40 41 42 43 44 45 46 47 48 49 50

000
ASUS43 KGRB 210501
RWRGRB

NORTH-CENTRAL AND NORTHEAST WISCONSIN REGIONAL WEATHER ROUNDUP
NATIONAL WEATHER SERVICE GREEN BAY WI
1200 AM CDT FRI JUL 21 2017

WIZ005-009-010>012-018-019-210600-
NORTH CENTRAL WISCONSIN

CITY           SKY/WX    TMP DP  RH WIND       PRES   REMARKS
IRONWOOD       CLEAR     63  61  93 CALM      29.99S
MANITOWISH WTR   N/A     59  59 100 CALM      30.01S FOG
ARBOR VITAE    NOT AVBL
EAGLE RIVER    NOT AVBL
LAND O LAKES   CLEAR     58  58 100 CALM      30.03R
RHINELANDER    CLEAR     62  62 100 W3        30.02S
PHILLIPS       CLOUDY    62  62 100 CALM      30.01R FOG
ANTIGO         CLEAR     63  61  93 CALM      30.01S
TOMAHAWK       NOT AVBL
MERRILL        PTCLDY    62  62 100 CALM      30.00F
$$

WIZ013-073-210600-
NORTHEAST WISCONSIN

CITY           SKY/WX    TMP DP  RH WIND       PRES   REMARKS
IRON MOUNTAIN  CLEAR     61  58  90 CALM      29.97S
MARINETTE      CLEAR     68  64  87 CALM      29.96S
$$

WIZ017-030-035>037-045-210600-
CENTRAL WISCONSIN

CITY           SKY/WX    TMP DP  RH WIND       PRES   REMARKS
MEDFORD        NOT AVBL
WAUSAU         CLEAR     69  65  86 N6        29.98S
MOSINEE        CLEAR     68  66  94 NW8       29.99F
MARSHFIELD     CLEAR     68  63  84 CALM      29.99S
WISC RAPIDS    CLEAR     65  64  97 CALM      29.99F
STEVENS POINT  NOT AVBL
WAUPACA        NOT AVBL
SHAWANO        CLEAR     67  64  89 CALM      29.96S
CLINTONVILLE   CLEAR     68  64  88 CALM      29.96F
WAUTOMA        CLEAR     67  66  97 CALM      29.98F
$$

WIZ038-039-048-051-210600-
FOX VALLEY

CITY           SKY/WX    TMP DP  RH WIND       PRES   REMARKS
NWS GREEN BAY  CLEAR     69  68  96 W3        29.95S
APPLETON       NOT AVBL
OSHKOSH        CLEAR     70  67  90 CALM      29.96F
FOND DU LAC    CLEAR     70  66  87 SW5       29.97F
$$

WIZ022-050-052-210600-
EAST CENTRAL WISCONSIN

CITY           SKY/WX    TMP DP  RH WIND       PRES   REMARKS
EPHRAIM        FAIR      70  63  78 N6        29.95R
WASHINGTON ISL FAIR      66  65  96 NE5       29.95R
STURGEON BAY     N/A     71  68  90 NW3       29.95S
MANITOWOC      NOT AVBL
SHEBOYGAN      CLEAR     67  67 100 CALM      29.96F FOG
$$

LMZ563-521-522-541>543-210600-
LAKESHORE

STATION/POSITION TIME  TEMP    WIND        PRES    VSBY  WAVE
                       AIR SEA DIR/SP/G                  HT/PER
                 (UTC) (F)     (DEG/KT/KT) (MB)    (MI)  (FT/S)
SHEBOYGAN LKSHOR 0400   71     190/  6/  6 1014.1R
KEWAUNEE LKSHORE 0424   72     250/  3/  5 1013.5
NORTHPORT PIER   0440   70     350/  2/  5 1013.9R
N MID LAKE BUOY  0350   68 65  160/  4/  8 1014.4F         1/ 5
S GREEN BAY BUOY 0430   76 74  300/  8/  8 1013.7R
CHAMBERS ISLAND  0440   72      20/  7/  9 1013.5S
MENOMINEE LKSHOR 0424   73      10/ 12/ 13 1013.9
$$




USA.gov is the U.S. government's official web portal to all federal, state and local government web resources and services.